Regional Weather Roundup
Issued by NWS

Home | Current Version | Previous Version | Graphics & Text | Print | Product List | Glossary On
Versions: 1 2 3 4 5 6 7 8 9 10 11 12 13 14 15 16 17 18 19 20 21 22 23 24 25 26 27
000
ASUS45 KBOU 300707
RWRCO

WEATHER ROUNDUP FOR COLORADO
NATIONAL WEATHER SERVICE DENVER/BOULDER CO
100 AM MDT SAT APR 30 2016

NOTE: "FAIR" INDICATES FEW OR NO CLOUDS BELOW 12000 FEET WITH NO
SIGNIFICANT WEATHER AND/OR OBSTRUCTIONS TO VISIBILITY.

COZ001>005-013-030-031-300800-
...NORTHWEST COLORADO...

CITY           SKY/WX    TMP DP  RH WIND       PRES   REMARKS
CRAIG          CLOUDY    36  29  75 W9        29.87R
HAYDEN         CLOUDY    34  28  80 W8        29.85R WCI  27
MEEKER         MOCLDY    35  32  88 CALM      29.86R
MOUNT WERNER   NOT AVBL
STEAMBOAT SPGS CLOUDY    33  31  94 SW9       29.83R WCI  25
WALDEN         CLOUDY    30  27  86 NW5       29.69S WCI  25
$$

COZ006>008-011-300800-
...WEST CENTRAL VALLEYS...

CITY           SKY/WX    TMP DP  RH WIND       PRES   REMARKS
GRAND JUNCTION MOCLDY    43  40  89 CALM      29.83S
MONTROSE       CLOUDY    42  35  76 S7        29.87R
EAGLE          CLOUDY    37  36  93 CALM      29.84S
RIFLE          FAIR      42  37  82 W7        29.83R
DELTA          NOT AVBL
NUCLA          NOT AVBL
$$

COZ017>023-064>068-300800-
...SOUTHWEST COLORADO...

CITY           SKY/WX    TMP DP  RH WIND       PRES   REMARKS
DURANGO        FAIR      29  25  85 E5        29.84R WCI  24
CORTEZ         MOCLDY    33  32  96 NE6       29.88R WCI  28
PAGOSA SPRINGS FAIR      32  32 100 CALM      29.87S
TELLURIDE      FOG       29  29 100 CALM      29.91S VSB 1/4
WOLF CREEK PAS FOG       19  19 100 SW13      29.93S VSB 3/4 WCI   7
$$

COZ009-010-012-014-032>034-037-058>063-300800-
...CENTRAL COLORADO...

CITY           SKY/WX    TMP DP  RH WIND       PRES   REMARKS
ASPEN          LGT SNOW  33  32  96 CALM      29.82S FOG
BUENA VISTA    FAIR      24  23  95 W3        29.84F
COPPER MTN     NOT AVBL
BERTHOUD PASS  FLURRIES  12   3  67 CALM      29.84S
COTTONWOOD PAS FOG       28  27  93 CALM      29.84F VSB 1
GUNNISON       FAIR      36  30  80 SW3       29.85S
KREMMLING      CLOUDY    34  28  80 N3        29.84S
LEADVILLE      LGT SNOW  22  21  96 N3        29.83S FOG
MONARCH PASS   CLOUDY    23  19  86 MISG      29.96S
SALIDA         CLOUDY    31  29  91 CALM      29.91F
SUNLIGHT       FOG      N/A N/A N/A W5        29.91S VSB 1/4
WILKERSON PASS LGT SNOW N/A N/A N/A CALM      29.87S
$$

COZ069>075-300800-
...SAN LUIS VALLEY/SANGRE DE CRISTO MOUNTAINS...

CITY           SKY/WX    TMP DP  RH WIND       PRES   REMARKS
ALAMOSA        CLOUDY    32  31  96 SE3       29.84F
LA VETA PASS   SNOW      27  23  86 MISG      29.83F VSB 1/2
SAGUACHE       MIX PCPN  32  32 100 CALM      29.85F
$$

COZ035-036-038>040-300800-
...NORTHERN COLORADO FRONT RANGE...

CITY           SKY/WX    TMP DP  RH WIND       PRES   REMARKS
DENVER INTL AP LGT SNOW  31  28  89 N7        29.88F VSB 1   WCI  24
DMNS CITY PARK   N/A     32  32 100 N3        29.89F
AURORA         LGT SNOW  32  32 100 NW8       29.88F FOG     WCI  25
FRONT RANGE AP NOT AVBL
ERIE MUNI ARPT LGT SNOW  33  33 100 CALM      29.90S
BOULDER MUN AP LGT SNOW  32  32 100 W3        29.89F
CENTENNIAL     LGT SNOW  32  31  96 NW9       29.87F FOG     WCI  24
BROOMFIELD     LGT SNOW  32  32 100 N7        29.89F WCI  26
FORT COLLINS   CLOUDY    36  34  93 NE6       29.91F
LONGMONT       MIX PCPN  36  35  95 CALM      29.92S
$$

COZ041-046-047-076>085-087-088-300800-
...PIKES PEAK/PALMER DIVIDE AND SOUTHERN FOOTHILLS...

CITY           SKY/WX    TMP DP  RH WIND       PRES   REMARKS
COLO. SPRINGS  LGT SNOW  31  29  92 W6        29.86F FOG     WCI  25
A. F. ACADEMY  MOCLDY    30  30 100 N9        29.84F WCI  22
SCHRIEVER AFB  NOT AVBL
ELLICOTT       NOT AVBL
FALCON         CLOUDY    29  27  90 W5        29.85F WCI  24
FORT CARSON    FLURRIES  32  31  98 NW3       29.85F
LIMON          CLOUDY    29  28  96 NW12      29.85F WCI  19
MONUMENT HILL  LGT SNOW  27  27 100 NW9       29.86F WCI  17
TRINIDAD       FAIR      30  28  92 W5        29.85F FOG     WCI  25
$$

COZ042>045-048>051-090-091-300800-
...NORTHEAST COLORADO...

CITY           SKY/WX    TMP DP  RH WIND       PRES   REMARKS
GREELEY ARPT     N/A     34  34 100 NW3       29.91S
AKRON          LGT SNOW  30  29  96 N14       29.86F FOG     WCI  19
BURLINGTON     CLOUDY    33  30  88 N13       29.83F FOG     WCI  24
WRAY           NOT AVBL
STERLING       LGT SNOW  32  32 100 N5        29.88F WCI  27
HOLYOKE        NOT AVBL
FORT MORGAN    LGT SNOW  32  32  99 NW7       29.89F WCI  26
$$

COZ086-089-092>099-300800-
...SOUTHEAST COLORADO...

CITY           SKY/WX    TMP DP  RH WIND       PRES   REMARKS
PUEBLO         CLOUDY    37  34  89 CALM      29.87F
LA JUNTA       MIX PCPN  36  34  92 W9        29.87F
LAMAR          CLOUDY    37  35  92 NW7       29.84S
SPRINGFIELD      N/A     35  33  92 NW15      29.82F WCI  25
$$




USA.gov is the U.S. government's official web portal to all federal, state and local government web resources and services.